TimeEDT,TemperatureF,Dew PointF,Humidity,Sea Level PressureIn,VisibilityMPH,Wind Direction,Wind SpeedMPH,Gust SpeedMPH,PrecipitationIn,Events,Conditions,WindDirDegrees,DateUTC
12:51 AM,70.0,59.0,68,30.12,10.0,ENE,6.9,-,N/A,,Mostly Cloudy,70,2013-06-05 04:51:00
1:51 AM,69.1,57.0,65,30.11,10.0,ENE,6.9,-,N/A,,Clear,70,2013-06-05 05:51:00
2:51 AM,69.1,57.9,68,30.11,10.0,ENE,4.6,-,N/A,,Clear,60,2013-06-05 06:51:00
3:51 AM,68.0,57.0,68,30.09,10.0,ENE,5.8,-,N/A,,Clear,70,2013-06-05 07:51:00
4:51 AM,68.0,55.9,65,30.09,10.0,East,5.8,-,N/A,,Clear,80,2013-06-05 08:51:00
5:51 AM,66.9,55.0,66,30.10,10.0,ENE,4.6,-,N/A,,Clear,70,2013-06-05 09:51:00
6:51 AM,70.0,55.0,59,30.11,10.0,ENE,4.6,-,N/A,,Clear,60,2013-06-05 10:51:00
7:51 AM,73.9,57.9,57,30.12,10.0,Calm,Calm,-,N/A,,Clear,0,2013-06-05 11:51:00
8:51 AM,75.0,57.9,55,30.12,10.0,ENE,6.9,-,N/A,,Clear,60,2013-06-05 12:51:00
9:51 AM,77.0,55.0,47,30.14,10.0,ENE,6.9,-,N/A,,Clear,60,2013-06-05 13:51:00
10:51 AM,77.0,57.0,50,30.14,10.0,NE,9.2,17.3,N/A,,Clear,50,2013-06-05 14:51:00
11:51 AM,78.1,57.9,50,30.13,10.0,ENE,9.2,17.3,N/A,,Clear,60,2013-06-05 15:51:00
12:51 PM,78.1,55.9,46,30.13,10.0,ENE,9.2,18.4,N/A,,Clear,70,2013-06-05 16:51:00
1:51 PM,79.0,54.0,42,30.12,10.0,Variable,4.6,-,N/A,,Clear,0,2013-06-05 17:51:00
2:51 PM,79.0,54.0,42,30.11,10.0,NE,9.2,-,N/A,,Clear,50,2013-06-05 18:51:00
3:51 PM,78.1,55.0,45,30.09,10.0,NE,5.8,-,N/A,,Clear,50,2013-06-05 19:51:00
4:51 PM,78.1,57.0,48,30.07,10.0,ENE,6.9,-,N/A,,Clear,60,2013-06-05 20:51:00
5:51 PM,78.1,57.0,48,30.06,10.0,ENE,5.8,-,N/A,,Clear,60,2013-06-05 21:51:00
6:51 PM,75.9,57.9,54,30.06,10.0,ENE,5.8,-,N/A,,Clear,60,2013-06-05 22:51:00
7:51 PM,73.9,59.0,59,30.08,10.0,NE,3.5,-,N/A,,Clear,50,2013-06-05 23:51:00
8:51 PM,72.0,60.1,66,30.07,10.0,ENE,5.8,-,N/A,,Clear,60,2013-06-06 00:51:00
9:51 PM,72.0,61.0,68,30.09,10.0,ENE,4.6,-,N/A,,Clear,70,2013-06-06 01:51:00
10:51 PM,72.0,61.0,68,30.09,10.0,East,4.6,-,N/A,,Mostly Cloudy,80,2013-06-06 02:51:00
11:51 PM,75.0,62.1,64,30.09,10.0,ESE,9.2,-,N/A,,Partly Cloudy,120,2013-06-06 03:51:00